STARLINK-5620, 55414

Orbit data source: Space-Track

STARLINK-5620, 55414 is a payload satellite owned by SpaceX/Seattle (US) in LEO that was launched on Tue, 31 Jan 2023 UTC via an FALCON 9 launch vehicle from the Air Force Western Test Range (AFWTR). Payload-class satellites include a variety of spacecraft equipped with specific instruments for various scientific and technological missions. These include communications satellites like Starlink; space stations such as the ISS; scientific satellites like the Hubble; Earth observation satellites from companies like Planet Labs, Umbra, and HawkEye 360; GPS; miniature CubeSats for education and research; and military/defense satellites.

Loading next visibility...
Identifier
55414, 2023-014Z
Orbit
LEO
Country
Flag of USUS
Related business
Manufacturer
SpaceX/Seattle
Mission
Operational Commercial Communications
Bus & Motor
STARLINK, Unknown motor
Mass
305 kg wet, ~290 kg dry
Launch date (UTC)
2023-01-31 (3 years ago)
Launch vehicle
FALCON 9
Launch site
Air Force Western Test Range (AFWTR)
Object type
Payload
Rocket body
Debris
Shape & HBR
Box + 1 Pan, 10.1 m
Radar Cross Section
13.562 m², Large (>1 m²)

Expand to show TLE details & history
Last TLE update: 2 days ago

TLE from 2 days ago
0 STARLINK-5620
1 55414U 23014Z   26171.42799003 -.00000008  00000-0  70958-5 0  9993
2 55414  69.9992 185.3217 0003735 266.8947  93.1785 14.98330608186956
Epoch: 2026-06-20T10:16Z
TLE epoch observation values (Epoch: 2026-06-20T10:16:18.338Z)
Latitude
-0°
Longitude
122.60253°
Altitude
574.623 km
Speed
7.574 km/s
True Right ascension
12h 21m 17s
True Declination
0° 00' 00"
Sunlit
Object was in daylight at epoch
Visualization orbit readout
Latitude
Unknown
Longitude
Unknown
Altitude
Unknown
Speed
Unknown
Apparent Right ascension
Unknown
Apparent Declination
Unknown
Sunlit
N/A
Visualization observer readout
Local Sidereal Time
21:30:49
Azimuth
Unknown
Elevation
Unknown
Doppler factor
Unknown
Orbital elements
Apogee altitude
572.597 km
Perigee altitude
567.407 km
Semi-major axis
6,948.139 km
Eccentricity
0.00037
Inclination
69.9992°
RAAN
185.3217°
Arg. of periapsis
266.8947°
True anomaly
93.22123°
Mean anomaly
93.1785°
Eccentric anomaly
93.19987°
Mean motion
3.74749 °/min
Orbital period
96.06 mins
BSTAR
0.0000070958
Loading maneuver chart data...
Computing Atmospheric mass density...

Documentation

Showing up to 5 results
|